Location: Ku?niki
(51.4449°N, 17.8974°E)
Time: 03:17:01
(UTC+00:00)

Terra - Pass Details

Date: 18 September 2020
Orbit: 701 x 703 km, 98.2° (Epoch: 22 October)

Event Time Altitude Azimuth Distance (km) Brightness Sun altitude
Exits shadow 21:58:06 16° 302° (WNW) 1,821 4.3 -36.3°
Drops below altitude 10° 21:59:33 10° 318° (NW) 2,182 5.0 -36.4°
Sets 22:02:23 0° 335° (NNW) 3,106 6.1 -36.5°
